Location: Brno
(49.2000°N, 16.6330°E)
Time: 18:19:00
(UTC+02:00)

Cosmos 1603 - Visible Passes

Search period start: 18 April 2014 00:00
Search period end: 28 April 2014 00:00
Orbit: 832 x 860 km, 71.0° (Epoch: 17 April)

Date Brightness Start Highest point End Pass type
(mag) Time Alt. Az. Time Alt. Az. Time Alt. Az.
18 Apr 3.9 21:09:46 10° NNW 21:15:23 70° WSW 21:20:30 12° SSE visible
18 Apr 6.2 22:56:44 10° WNW 22:58:26 11° W 23:00:08 10° WSW visible
19 Apr 3.9 20:55:58 10° NNW 21:01:35 72° WSW 21:07:08 10° SSE visible
19 Apr 6.2 22:42:45 10° WNW 22:44:40 12° W 22:46:35 10° WSW visible
20 Apr 3.9 20:42:09 10° NNW 20:47:47 74° WSW 20:53:21 10° SSE visible
20 Apr 6.2 22:28:47 10° WNW 22:30:53 12° W 22:33:00 10° WSW visible
21 Apr 3.9 20:28:21 10° NNW 20:34:00 76° WSW 20:39:34 10° SSE visible
21 Apr 6.2 22:14:50 10° WNW 22:17:07 13° W 22:19:24 10° WSW visible
22 Apr 6.2 22:00:55 10° WNW 22:03:21 13° W 22:05:47 10° WSW visible
23 Apr 6.2 21:46:59 10° WNW 21:49:35 13° W 21:52:09 10° SW visible
24 Apr 6.3 21:33:05 10° WNW 21:35:48 14° W 21:38:31 10° SW visible
25 Apr 6.3 21:19:11 10° WNW 21:22:02 14° W 21:24:52 10° SW visible
26 Apr 6.3 21:05:17 10° WNW 21:08:15 15° W 21:11:12 10° SW visible
27 Apr 6.3 20:51:23 10° WNW 20:54:28 15° W 20:57:33 10° SW visible
